This demonstration page uses our WeatherBlox Daily Observations layout. Learn more.

Left ArrowRight Arrow

Hourly Observations for September 3, 2019

Temp ( °F °C ) Dew Point ( °F °C ) Humidity (%) Winds ( mph kmh ) Pressure ( in mb ) Visibility ( mi km ) Precip ( " mm )
12:53 am 00:53 Clear 77 25 69 20.6 77 77 SSW 13 20 29.83 1010 10 16 0.00 0.00
1:53 am 01:53 Clear 76 24.4 68 20 77 77 SSW 9 15 29.82 1010 10 16 0.00 0.00
2:53 am 02:53 Clear 74 23.3 67 19.4 79 79 SSW 10 17 29.82 1010 10 16 0.00 0.00
3:53 am 03:53 Clear 73 22.8 66 18.9 79 79 SW 9 15 29.82 1010 10 16 0.00 0.00
4:53 am 04:53 Clear 72 22.2 65 18.3 79 79 SSW 12 19 29.82 1010 10 16 0.00 0.00
5:53 am 05:53 Clear 70 21.1 64 17.8 82 82 SW 7 11 29.84 1010 10 16 0.00 0.00
6:53 am 06:53 Clear 64 17.8 61 16.1 90 90 NW 3 6 29.88 1012 9 14 0.00 0.00
7:53 am 07:53 Sunny with Mist and Fog 67 19.4 64 17.8 91 91 Calm 29.90 1012 6 10 0.00 0.00
8:53 am 08:53 Sunny 73 22.8 65 18.3 76 76 SSW 5 7 29.89 1012 10 16 0.00 0.00
9:53 am 09:53 Sunny 75 23.9 65 18.3 71 71 Calm 29.91 1013 10 16 0.00 0.00
10:53 am 10:53 Sunny 80 26.7 66 18.9 62 62 NNE 13 20 29.94 1014 10 16 0.00 0.00
11:53 am 11:53 Sunny 83 28.3 69 20.6 63 63 NE 16 26 29.95 1014 10 16 0.00 0.00
12:53 pm 12:53 Sunny 84 28.9 63 17.2 49 49 NE 15 24 29.96 1015 10 16 0.00 0.00
1:53 pm 13:53 Sunny 85 29.4 55 12.8 36 36 NE 18 30 29.97 1015 10 16 0.00 0.00
2:53 pm 14:53 Sunny 85 29.4 59 15 42 42 ENE 15 24 29.98 1015 10 16 0.00 0.00
3:53 pm 15:53 Sunny 84 28.9 61 16.1 46 46 NE 14 22 30.00 1016 10 16 0.00 0.00
4:53 pm 16:53 Sunny 83 28.3 62 16.7 49 49 NE 12 19 30.01 1016 10 16 0.00 0.00
5:53 pm 17:53 Sunny 82 27.8 64 17.8 55 55 NE 9 15 30.03 1017 10 16 0.00 0.00
6:53 pm 18:53 Sunny 79 26.1 64 17.8 60 60 NE 8 13 30.04 1017 10 16 0.00 0.00
7:53 pm 19:53 Sunny 73 22.8 65 18.3 76 76 NE 5 7 30.06 1018 10 16 0.00 0.00
8:53 pm 20:53 Clear 69 20.6 60 15.6 73 73 NNE 6 9 30.07 1018 10 16 0.00 0.00
9:53 pm 21:53 Clear 67 19.4 61 16.1 81 81 undefined N/A 30.10 1019 10 16 0.00 0.00
10:53 pm 22:53 Clear 66 18.9 58 14.4 75 75 ENE 3 6 30.11 1020 10 16 0.00 0.00
11:53 pm 23:53 Clear 64 17.8 57 13.9 78 78 NNE 3 6 30.11 1020 10 16 0.00 0.00

Powered by AerisWeather